Regional Weather Roundup
Issued by NWS

Home | Current Version | Previous Version | Graphics & Text | Print | Product List | Glossary On
Versions: 1 2 3 4 5 6 7 8 9 10 11 12 13 14 15 16 17 18 19 20 21 22 23 24 25 26 27 28 29 30 31 32 33 34 35 36 37 38 39 40 41 42 43 44 45 46 47 48 49 50
000
ASUS45 KTFX 231710
RWRMT
MONTANA REGIONAL WEATHER ROUNDUP
NATIONAL WEATHER SERVICE GREAT FALLS MT
1100 AM MDT TUE MAY 23 2017

NOTE: "FAIR" INDICATES FEW OR NO CLOUDS BELOW 12000 FEET WITH NO
SIGNIFICANT WEATHER AND/OR OBSTRUCTIONS TO VISIBILITY.

MTZ001>007-043-231800-
WEST OF THE DIVIDE

CITY           SKY/WX    TMP DP  RH WIND       PRES   REMARKS
KALISPELL      SUNNY     66  46  48 VRB3      30.05F
MISSOULA       SUNNY     62  44  51 S3        30.11F
BUTTE          SUNNY     64  37  36 N5        30.19F
MULLAN PASS    SUNNY     59  36  42 VRB5      30.18F
ANACONDA         N/A     70  36  28 S10       30.14F
DEER LODGE       N/A     64  45  48 N5        30.17F
EUREKA           N/A     64  43  45 CALM      30.03F
HAMILTON         N/A     68  43  40 E3        30.09F
PLAINS           N/A     67  48  50 CALM      30.05F
RONAN            N/A     70  48  45 SW2       30.11F
$$

MTZ008-052>055-231800-
SOUTHWEST MONTANA

CITY           SKY/WX    TMP DP  RH WIND       PRES   REMARKS
BOZEMAN        CLOUDY    63  45  51 CALM      30.16F
DILLON         SUNNY     62  40  44 SW7       30.19F
W YELLOWSTONE  CLOUDY    55  36  47 CALM      30.26F
ENNIS          SUNNY     63  36  36 CALM      30.24F
THREE FORKS      N/A     62  44  51 E1        30.13F
TWIN BRIDGES     N/A     61  41  47 S1        30.15F
$$

MTZ009-010-012-014-046-048-049-054-231800-
EAST SLOPES AND CENTRAL MONTANA

CITY           SKY/WX    TMP DP  RH WIND       PRES   REMARKS
CUT BANK       SUNNY     69  44  40 S8        30.01F
GREAT FALLS    SUNNY     70  44  39 S13       30.05F
HELENA         SUNNY     64  46  52 N6        30.12F
CHOTEAU          N/A     73  45  35 SW9       30.05F
CONRAD           N/A     74  49  41 S10       30.04F
$$

MTZ011-013-016-021-045-047-050-051-231800-
NORTH CENTRAL MONTANA

CITY           SKY/WX    TMP DP  RH WIND       PRES   REMARKS
HAVRE          SUNNY     70  37  29 E6        30.03F
LEWISTOWN      SUNNY     65  39  38 VRB3      30.11F
N BAR RANCH      N/A     63  36  36 S20       30.16F
CHINOOK          N/A     70  34  26 SE12      30.04F
FORT BENTON      N/A    N/A N/A N/A MISG      30.05F
$$

MTZ017>020-022>027-061-062-231800-
NORTHEAST MONTANA

CITY           SKY/WX    TMP DP  RH WIND       PRES   REMARKS
GLASGOW        MOSUNNY   66  35  31 VRB3      30.12F
JORDAN           N/A     66  29  24 SE7       30.13F
SIDNEY         SUNNY     65  33  30 E3        30.15F
WOLF POINT     SUNNY     69  33  26 VRB5      30.13F
MALTA          SUNNY     66  37  34 S10G17    30.09F
PLENTYWOOD       N/A     64  34  32 SE6       30.12F
POPLAR           N/A     66  36  32 CALM      30.13F
SCOBEY           N/A     66  31  27 N2        30.10F
$$

MTZ028>42-056>058-231800-
SOUTHCENTRAL AND SOUTHEAST MONTANA

CITY           SKY/WX    TMP DP  RH WIND       PRES   REMARKS
BAKER          SUNNY     61  33  35 VRB7      30.17S
BILLINGS       MOSUNNY   63  37  38 S3        30.16F
LIVINGSTON     CLOUDY    67  40  37 W13       30.14F
MILES CITY     SUNNY     66  31  27 NW7       30.15F
BIG TIMBER     SUNNY     59  45  58 E7        30.18F
EKALAKA          N/A     59  34  39 NW7       30.13F
FORSYTH          N/A     64  32  29 CALM      30.16F
LAUREL           N/A     61  40  45 CALM      30.13F
ROUNDUP          N/A     64  36  35 S5        30.05F
$$

REGIONAL REPORTS...DAKOTAS

CITY           SKY/WX    TMP DP  RH WIND       PRES   REMARKS
WILLISTON      SUNNY     65  35  33 VRB3      30.15F
MINOT          SUNNY     63  37  38 N13G18    30.12F
DICKINSON      SUNNY     59  35  40 N14G22    30.12F
BEACH            N/A     61  32  33 VRB6G16   30.18F
TIOGA            N/A     61  32  33 VRB3G12   30.16F
WATFORD CITY     N/A     63  34  34 NE12      30.14F
BISMARCK       MOSUNNY   61  36  39 N24G33    30.09S
GRAND FORKS    CLOUDY    56  44  64 NE20      30.01F
FARGO          CLOUDY    54  48  80 N17G25    29.96S
BUFFALO SD       N/A     60  36  40 N16G23    30.08F
RAPID CITY     MOSUNNY   58  37  45 N20G26    30.13F
$$

REGIONAL REPORTS...WYOMING/IDAHO/WASHINGTON

CITY           SKY/WX    TMP DP  RH WIND       PRES   REMARKS
GILLETTE       MOSUNNY   58  36  43 N16       30.19S
SHERIDAN       SUNNY     62  38  40 N8        30.18F
BUFFALO WY     SUNNY     59  34  39 N13G23    30.21F
CODY           SUNNY     62  31  31 VRB5      30.20F
YELLOWSTONE LA   N/A     44  30  57 SE5       30.34F
IDAHO FALLS    CLOUDY    66  39  37 NE7       30.21F
SALMON         SUNNY     61  41  48 CALM      30.15F
BOISE          SUNNY     73  44  35 SE6       30.12S
SPOKANE        MOSUNNY   73  47  39 VRB3      30.02F
$$

REGIONAL REPORTS...ALBERTA

CITY           SKY/WX    TMP DP  RH WIND       PRES   REMARKS
EDMONTON       MOSUNNY   75  45  33 SW7       29.75F
CALGARY        PTSUNNY   70  37  30 S6        29.90F
LETHBRIDGE     PTSUNNY   77  41  27 W16G24    29.92F
MEDICINE HAT   PTSUNNY   73  37  27 S18G30    29.93F
WATERTON GATE    N/A     70  39  32 SW14G21     N/A
CARDSTON         N/A     72  41  33 W10         N/A
MILK RIVER       N/A     72  45  37 S14         N/A
$$

REGIONAL REPORTS...SASKATCHEWAN

CITY           SKY/WX    TMP DP  RH WIND       PRES   REMARKS
REGINA         MOSUNNY   68  28  22 SW3       30.07F
SASKATOON      CLOUDY    70  34  26 S15G23    30.00F
CYPRESS HILLS    N/A     61  30  31 S14G21      N/A
VAL MARIE        N/A     64  27  24 S16G22      N/A
ROCKGLEN         N/A     63  30  29 SW5         N/A
ASSINIBOIA       N/A     75  43  31 S12         N/A
$$



USA.gov is the U.S. government's official web portal to all federal, state and local government web resources and services.